Voltar ao catálogo

THORAD AGENA D DEB

AtivoSSO
NORAD 9666·DEBRIS·🇺🇸 United States

Lançado Apr 8, 1970 de Vandenberg Space Force Base

Loading…

Próximas Passagens (próximas 24 horas)

TLE

AtualizadoSource: Space-Track

Época: Sep 14, 2026, 15:40 UTC

1 09666U 70025NK  26257.65305731  .00001334  00000-0  15075-2 0  9994
2 09666  99.2723 218.2315 0114011  71.2340 103.6656 13.69532442765114

Acompanhe THORAD AGENA D DEB em tempo real com AllMySat

Download on the App Store